Wind_Speed
14 14 15 15 15 15 16 16 16 16 16 16 16 16 16 17 16 16 17 17 17 17 17 18 18 19 20 20 21 22 23 24 25 26 26 27 28 29
17 17 18 18 18 19 19 19 19 19 19 19 19 19 19 20 20 20 20 20 20 20 20 20 21 21 22 22 23 23 24 25 26 27 28 29 29 30
20 21 21 21 21 22 22 22 22 22 22 22 22 22 22 23 23 23 23 23 23 23 23 23 23 24 24 25 25 26 26 26 27 28 28 29 30 31
23 23 24 24 25 25 25 25 25 25 25 25 25 25 25 26 26 26 27 27 27 27 27 27 27 27 27 27 27 28 29 29 29 29 30 31 31 32
25 26 26 27 28 28 29 29 29 29 29 29 29 29 29 29 29 30 30 30 30 30 30 30 30 30 30 30 30 30 31 31 32 32 32 32 32 33
28 29 29 30 30 31 32 32 32 32 33 32 32 33 33 33 33 33 33 33 33 34 33 33 33 33 34 33 33 33 33 33 34 34 34 34 34 34
31 31 32 33 33 34 35 35 35 35 35 36 36 36 36 37 37 37 37 36 36 37 37 36 36 36 37 37 37 36 36 36 36 36 36 36 36 36
34 34 35 36 37 37 38 38 38 39 39 39 40 39 39 41 41 41 41 40 39 40 41 39 40 39 39 40 39 39 39 39 39 39 39 38 38 38
36 37 37 39 40 41 41 42 42 42 42 43 43 42 42 43 45 45 45 45 43 42 44 42 43 42 42 43 43 42 42 42 41 41 41 41 40 40
39 40 41 42 42 43 43 44 44 44 45 45 46 45 45 46 48 48 49 49 48 47 48 47 46 46 46 46 46 46 45 45 44 44 44 43 42 42
40 40 41 42 42 44 45 45 45 46 47 48 49 49 49 50 52 53 53 54 52 51 52 52 50 51 50 50 49 49 48 48 47 47 46 46 45 45
42 42 42 43 43 45 46 47 48 49 50 51 52 53 54 55 56 57 58 58 58 56 56 57 56 57 55 53 53 53 52 51 50 49 49 48 48 47
44 44 45 46 47 48 49 51 52 53 54 55 56 57 59 60 61 62 63 63 63 62 61 61 61 61 61 59 57 56 56 55 54 53 52 51 51 50
46 47 48 49 51 52 54 56 57 58 59 60 61 61 62 63 64 64 65 65 66 66 65 65 65 64 64 63 61 59 59 58 57 56 55 54 53 53
48 50 51 52 54 56 58 60 61 62 63 64 64 64 65 65 65 65 66 67 67 66 66 67 67 67 67 66 64 62 61 60 60 59 57 56 55 55
52 53 55 56 58 59 60 62 63 64 64 65 65 65 66 66 66 67 67 68 68 68 68 69 69 69 69 68 67 65 63 61 60 60 59 58 58 56
56 57 58 59 60 61 62 62 62 62 62 63 63 63 63 64 64 66 67 67 68 67 65 65 65 66 66 66 67 66 63 61 60 60 61 59 58 57
58 58 59 59 59 60 59 59 59 59 59 59 60 60 60 61 61 61 62 62 63 62 61 60 60 61 61 62 62 63 62 61 60 60 60 59 57 56
57 57 57 56 56 55 55 55 55 55 55 55 55 55 55 55 55 54 54 54 54 53 53 54 55 56 57 56 54 57 58 58 58 59 58 57 55 53
54 53 53 52 52 52 51 51 51 51 50 49 48 48 47 47 47 47 47 47 46 46 46 47 48 49 50 51 51 51 53 54 55 56 55 55 53 52
51 50 49 49 48 47 47 46 46 45 44 44 43 42 42 42 41 41 41 40 40 40 40 40 42 44 45 45 45 45 47 49 51 52 52 53 52 51
47 46 45 44 42 41 40 39 38 38 38 37 36 36 36 36 35 35 34 34 34 34 34 34 36 39 41 41 40 40 41 44 46 47 48 49 49 49
41 40 38 37 36 34 33 33 33 32 32 31 31 31 31 30 30 29 28 28 28 28 28 29 31 32 34 36 37 36 36 38 41 42 42 44 45 45
Wind_Direction
270 274 277 280 280 281 282 283 283 284 284 284 284 285 285 285 284 284 284 283 281 279 277 276 275 273 272 271 269 266 265 263 261 259 258 256 255 253
270 273 276 278 279 280 280 281 282 282 281 281 281 281 281 281 282 282 281 280 279 278 277 275 274 273 271 270 269 268 266 265 263 261 259 257 256 255
271 273 275 276 277 278 279 280 281 281 281 280 280 279 278 277 277 278 278 278 278 277 276 275 274 274 272 270 269 267 266 265 265 264 262 260 258 257
272 274 275 276 277 278 278 279 279 280 280 280 280 279 278 277 276 275 275 275 276 276 275 275 274 273 273 271 269 267 266 265 264 264 263 262 261 260
273 274 275 276 277 278 278 278 279 280 280 279 279 279 278 277 276 276 275 275 275 275 275 275 274 273 272 270 269 267 266 265 264 263 263 263 262 262
273 275 276 276 277 278 278 278 279 280 280 280 279 279 279 278 277 276 275 275 275 275 275 274 274 273 272 271 269 267 265 265 264 264 263 262 262 262
275 275 276 276 277 277 277 277 278 279 279 279 279 278 278 277 277 276 275 274 274 274 274 273 273 273 272 270 269 267 266 265 264 263 263 263 262 261
273 274 274 275 276 277 277 277 277 278 278 278 278 277 277 276 276 276 276 275 274 273 272 272 272 272 270 269 268 268 266 265 263 263 263 262 262 261
273 273 274 275 276 277 277 277 278 278 278 277 277 277 276 275 275 275 275 275 274 273 272 271 271 270 269 268 267 267 267 266 264 263 263 262 262 261
271 271 273 274 275 275 275 275 275 276 277 277 277 277 276 275 275 275 275 275 274 273 272 271 269 268 267 266 266 265 265 265 264 264 263 262 261 260
273 273 274 274 274 274 274 275 275 275 275 276 277 277 276 276 275 275 275 274 274 273 272 271 269 268 266 266 265 264 263 263 263 262 262 261 261 260
276 276 276 276 276 276 276 276 275 275 275 276 276 276 276 276 275 275 275 274 273 272 271 271 269 268 266 265 264 263 263 262 261 261 260 260 259 259
277 277 277 277 277 277 277 277 277 277 277 277 276 276 276 275 275 274 274 273 272 272 270 269 268 267 267 265 263 262 261 261 260 260 259 259 258 258
279 279 279 279 279 279 279 279 279 279 278 278 278 277 276 275 275 274 273 273 272 271 269 268 267 266 265 265 263 261 260 259 259 258 258 258 258 257
281 281 281 281 281 281 280 280 280 279 279 279 278 277 276 276 275 274 274 273 272 271 270 268 267 266 264 264 263 261 259 258 258 257 257 256 256 256
283 283 283 283 282 282 282 281 281 280 280 279 279 278 276 276 275 274 274 273 272 271 269 268 266 265 264 263 261 260 259 257 256 256 255 254 254 254
285 285 285 284 284 284 284 283 283 282 281 281 280 279 278 277 276 275 275 274 273 271 269 267 266 264 262 261 260 259 257 256 255 254 254 253 252 253
286 286 286 286 285 285 284 284 284 283 283 282 281 281 279 279 278 277 276 275 274 272 269 266 264 262 262 260 259 259 257 255 254 252 252 252 251 251
288 288 287 287 286 286 286 285 285 285 285 284 283 282 282 281 280 279 278 277 275 272 269 266 263 262 260 259 257 258 257 254 252 250 250 250 249 248
289 289 288 287 287 287 287 286 286 286 286 285 285 285 284 284 283 282 281 279 276 273 270 266 264 262 261 259 256 254 255 254 251 249 248 248 248 247
290 289 289 288 289 289 288 288 288 287 287 286 286 286 287 287 286 284 283 280 277 274 271 267 264 262 261 260 257 255 254 252 250 248 248 248 247 247
291 290 290 290 290 290 290 290 290 290 289 289 288 289 289 290 290 287 285 283 280 276 272 269 266 264 261 259 259 256 252 250 249 248 248 247 247 247
293 292 292 292 292 292 293 294 294 293 293 293 293 292 292 292 292 291 290 288 284 280 275 273 270 267 263 261 259 256 253 252 251 250 248 247 247 246
Height
5867 5866 5866 5866 5865 5865 5864 5864 5864 5862 5862 5861 5860 5859 5858 5857 5856 5856 5855 5854 5854 5853 5852 5851 5851 5850 5850 5849 5849 5849 5849 5849 5849 5849 5849 5850 5851 5851
5862 5861 5861 5860 5860 5859 5859 5858 5857 5857 5856 5855 5854 5853 5852 5851 5850 5850 5849 5848 5848 5847 5846 5845 5845 5844 5844 5843 5843 5842 5842 5842 5842 5842 5842 5843 5843 5844
5857 5856 5855 5854 5854 5853 5852 5851 5851 5850 5849 5849 5848 5847 5846 5845 5844 5843 5842 5841 5840 5840 5839 5838 5838 5837 5836 5836 5835 5835 5835 5835 5834 5834 5835 5835 5835 5836
5850 5850 5849 5848 5847 5846 5845 5844 5843 5842 5842 5841 5840 5839 5839 5838 5837 5836 5834 5833 5832 5832 5831 5830 5830 5829 5829 5828 5827 5827 5827 5827 5827 5826 5826 5827 5827 5827
5843 5842 5841 5840 5839 5838 5837 5836 5835 5834 5834 5833 5832 5830 5830 5829 5828 5827 5826 5825 5824 5823 5822 5821 5821 5820 5820 5819 5818 5818 5818 5818 5818 5818 5818 5818 5818 5818
5836 5835 5833 5832 5831 5830 5829 5828 5826 5826 5824 5824 5823 5821 5820 5818 5817 5817 5816 5815 5814 5813 5812 5811 5811 5810 5809 5809 5809 5808 5808 5808 5808 5808 5808 5808 5808 5809
5827 5826 5825 5823 5822 5820 5819 5818 5816 5815 5814 5813 5812 5811 5810 5808 5806 5805 5805 5804 5803 5802 5801 5801 5800 5799 5799 5798 5797 5797 5797 5797 5797 5797 5798 5798 5798 5798
5817 5816 5815 5813 5812 5810 5809 5807 5806 5805 5803 5802 5800 5799 5798 5796 5794 5793 5792 5792 5792 5791 5789 5790 5788 5788 5787 5786 5786 5785 5785 5786 5786 5786 5786 5787 5787 5787
5807 5805 5804 5802 5801 5799 5797 5796 5795 5793 5791 5789 5787 5787 5785 5784 5781 5780 5779 5778 5779 5778 5776 5777 5776 5775 5774 5773 5773 5773 5773 5773 5773 5774 5774 5775 5775 5776
5795 5793 5792 5790 5788 5787 5785 5784 5782 5780 5778 5775 5774 5773 5772 5770 5767 5766 5764 5764 5764 5764 5762 5762 5762 5761 5761 5760 5760 5760 5760 5760 5760 5760 5761 5762 5762 5763
5782 5781 5779 5777 5775 5773 5772 5770 5769 5767 5764 5761 5760 5758 5756 5754 5752 5750 5748 5747 5747 5748 5745 5745 5746 5745 5745 5745 5745 5745 5745 5745 5746 5746 5747 5748 5748 5749
5770 5768 5766 5764 5762 5759 5757 5756 5754 5752 5749 5747 5745 5742 5740 5738 5735 5732 5730 5728 5728 5729 5729 5726 5727 5725 5727 5729 5728 5728 5729 5730 5730 5731 5732 5733 5733 5735
5757 5754 5752 5749 5747 5744 5742 5739 5737 5735 5733 5730 5728 5725 5722 5719 5716 5713 5710 5708 5707 5708 5709 5706 5706 5705 5705 5709 5710 5710 5711 5712 5713 5715 5716 5717 5718 5719
5743 5740 5737 5734 5731 5728 5725 5722 5719 5716 5713 5711 5708 5705 5702 5699 5696 5693 5690 5687 5686 5686 5686 5684 5684 5684 5684 5686 5689 5691 5692 5693 5694 5696 5698 5700 5701 5703
5728 5725 5721 5718 5714 5710 5706 5702 5699 5695 5692 5689 5686 5683 5680 5677 5674 5671 5668 5665 5664 5663 5663 5661 5661 5661 5661 5663 5666 5669 5671 5674 5675 5677 5680 5682 5684 5686
5712 5708 5704 5700 5696 5691 5687 5682 5677 5673 5669 5666 5663 5660 5656 5653 5650 5647 5645 5642 5640 5641 5639 5637 5636 5636 5638 5640 5642 5646 5650 5653 5655 5657 5660 5663 5666 5669
5694 5689 5685 5680 5676 5671 5666 5661 5656 5652 5647 5644 5640 5637 5633 5630 5627 5624 5620 5618 5616 5616 5616 5614 5612 5612 5613 5616 5619 5624 5628 5631 5634 5636 5639 5643 5648 5651
5675 5670 5665 5660 5656 5651 5646 5641 5636 5631 5627 5623 5619 5615 5612 5608 5605 5601 5597 5594 5593 5592 5591 5591 5590 5589 5591 5595 5599 5602 5605 5610 5613 5616 5618 5622 5629 5633
5656 5651 5646 5641 5636 5632 5627 5623 5618 5613 5608 5603 5599 5595 5592 5588 5585 5581 5577 5574 5572 5570 5570 5570 5569 5569 5571 5576 5582 5581 5584 5588 5591 5596 5600 5604 5610 5615
5637 5633 5628 5623 5619 5614 5610 5605 5601 5596 5591 5587 5582 5578 5574 5571 5567 5564 5561 5557 5555 5553 5553 5553 5553 5553 5554 5557 5562 5566 5566 5569 5573 5577 5582 5586 5591 5596
5621 5616 5611 5607 5603 5598 5594 5589 5585 5580 5576 5572 5568 5564 5560 5556 5553 5549 5546 5543 5540 5539 5538 5539 5538 5538 5539 5541 5545 5550 5552 5552 5556 5560 5565 5569 5574 5580
5605 5601 5596 5592 5588 5584 5580 5575 5571 5567 5562 5558 5555 5551 5547 5543 5540 5536 5533 5530 5528 5526 5526 5526 5526 5526 5526 5528 5531 5534 5537 5539 5541 5545 5550 5555 5559 5565
5591 5587 5583 5579 5575 5572 5568 5564 5560 5555 5551 5548 5544 5540 5537 5533 5529 5526 5523 5520 5518 5517 5516 5516 5515 5515 5515 5517 5519 5522 5524 5527 5529 5533 5538 5542 5546 5551